[[{"header":{"parameterUnit":"m.s-1","parameterCategory":1,"la1":30.2991,"la2":30.254,"lo1":-89.0895,"lo2":-89.0444,"dy":0.0017,"dx":0.0017,"nx":28,"ny":28,"refTime":"2025-08-28T03:00:00:Z","depth":0,"parameterNumber":2,"parameterNumberName":"U-component_of_WINDS"},"data":[0,0,0,0,0,0,0,0,0,0,0,0,0,0,0,0,0,0,0,0,0,0,0,0,0,0,0,0,0,0,0,0,0,0,0,0,0,0,0,0,0,0,0,0,0,0,0,0,0,0,0,0,0,0,0,0,0,0,-0.7288,-0.729,0,-0.7451,-0.7453,-0.7455,-0.754,-0.754,-0.754,-0.754,-0.7709,-0.7713,-0.7717,0,0,0,0,0,0,0,0,0,0,0,0,0,-0.7052,-0.7056,-0.7288,-0.729,-0.7292,-0.7451,-0.7453,-0.7455,-0.754,-0.754,-0.754,-0.754,-0.7707,-0.7712,-0.7718,0,0,0,0,0,0,0,0,0,0,0,0,0,-0.7179,-0.7057,-0.7288,-0.7353,-0.7361,-0.7451,-0.7453,-0.7456,-0.754,-0.754,-0.754,-0.7541,-0.7705,-0.7712,-0.7718,-0.7755,0,0,-0.7738,-0.7741,0,0,0,0,0,0,0,0,-0.7171,-0.7187,-0.7342,-0.7349,-0.7358,-0.7476,-0.7432,-0.7556,-0.754,-0.7472,-0.754,-0.7541,-0.7631,-0.7644,-0.7674,-0.7763,-0.777,-0.7739,-0.7743,-0.7746,-0.7748,0,0,0,0,0,0,0,-0.7162,-0.7181,-0.7353,-0.7344,-0.7354,-0.7376,-0.7394,-0.7456,-0.7549,-0.7478,-0.7485,-0.7503,-0.7635,-0.7667,-0.7679,-0.7773,-0.7739,-0.7745,-0.7749,-0.7751,-0.7902,-0.7903,0,0,0,0,0,0,-0.7143,-0.7173,-0.7348,-0.7358,-0.7263,-0.738,-0.74,-0.7438,-0.7548,-0.7565,-0.7502,-0.7506,-0.7656,-0.7671,-0.7685,-0.7737,-0.7746,-0.7752,-0.7756,-0.7902,-0.7902,-0.7903,0,0,0,0,0,0,-0.7137,-0.7157,-0.7341,-0.7267,-0.7292,-0.7383,-0.7425,-0.7441,-0.7473,-0.7567,-0.7584,-0.7518,-0.7657,-0.7676,-0.7737,-0.7744,-0.7755,-0.7761,-0.7902,-0.7902,-0.7903,-0.784,0,0,0,0,0,0,-0.713,-0.7155,-0.7169,-0.7267,-0.7296,-0.739,-0.7425,-0.7444,-0.7484,-0.749,-0.7586,-0.7602,-0.7658,-0.7727,-0.7744,-0.7753,-0.7766,-0.7902,-0.7902,-0.7902,-0.7842,-0.7838,-0.7834,0,0,0,0,0,-0.7121,-0.7145,-0.717,-0.719,-0.7316,-0.739,-0.7407,-0.7471,-0.7484,-0.75,-0.756,-0.7599,-0.774,-0.7733,-0.7752,-0.7763,-0.7902,-0.7902,-0.7902,-0.7843,-0.7839,-0.7834,0,0,0,0,0,0,-0.7047,-0.7159,-0.7188,-0.7243,-0.7307,-0.7404,-0.7426,-0.7464,-0.7525,-0.7529,-0.7606,-0.7627,-0.7682,-0.7729,-0.7719,-0.7806,-0.7825,-0.7829,-0.7773,-0.777,-0.7766,-0.7754,-0.7771,0,0,0,0,0,-0.7036,-0.7087,-0.7183,-0.7223,-0.7253,-0.7334,-0.7369,-0.7413,-0.7482,-0.7509,-0.7574,-0.764,-0.77,-0.7737,-0.7797,-0.7849,-0.7871,-0.7866,-0.7862,-0.7859,-0.7862,-0.7894,-0.7893,-0.7903,-0.7903,-0.7903,0,0,-0.7016,-0.7084,-0.7111,-0.721,-0.7264,-0.7316,-0.7356,-0.7409,-0.7448,-0.7518,-0.758,-0.763,-0.7709,-0.7766,-0.7794,-0.7807,-0.7864,-0.7859,-0.7855,-0.7861,-0.7894,-0.7893,-0.7892,-0.7903,-0.7903,-0.7903,0,0,-0.7006,-0.7062,-0.7102,-0.7156,-0.7237,-0.7291,-0.73,-0.7393,-0.7429,-0.7493,-0.7546,-0.7595,-0.7695,-0.7749,-0.779,-0.7801,-0.7839,-0.7818,-0.7799,-0.783,-0.7829,-0.7829,-0.7834,-0.7835,-0.7821,-0.782,-0.782,0,-0.6971,-0.7051,-0.7118,-0.7168,-0.7211,-0.7275,-0.7317,-0.7366,-0.7463,-0.7491,-0.7503,-0.7631,-0.7689,-0.776,-0.7763,-0.7793,-0.7808,-0.7808,-0.7824,-0.7824,-0.7825,-0.7831,-0.7832,-0.7817,-0.7818,-0.7818,-0.7818,0,-0.7004,-0.7058,-0.7081,-0.7173,-0.7218,-0.7263,-0.7339,-0.7376,-0.7416,-0.7469,-0.7534,-0.7605,-0.7681,-0.7701,-0.7741,-0.7779,-0.7784,-0.7809,-0.783,-0.782,-0.7827,-0.7829,-0.7813,-0.7814,-0.7815,-0.7816,0,0,-0.6952,-0.7081,-0.7088,-0.7131,-0.7226,-0.727,-0.7319,-0.7393,-0.7424,-0.7489,-0.7533,-0.7616,-0.764,-0.7686,-0.7733,-0.7759,-0.7765,-0.7781,-0.7785,-0.7777,-0.7813,-0.7795,-0.7796,-0.7791,-0.7792,-0.7792,-0.7807,0,-0.6956,-0.7047,-0.711,-0.7176,-0.7228,-0.7291,-0.7334,-0.7397,-0.7447,-0.7499,-0.7555,-0.7614,-0.764,-0.7669,-0.7698,-0.7758,-0.7774,-0.7758,-0.7834,-0.7835,-0.7813,-0.78,-0.778,-0.7791,-0.781,-0.7811,-0.7811,0,-0.6974,-0.7037,-0.7108,-0.7199,-0.7223,-0.726,-0.7334,-0.7382,-0.7456,-0.7491,-0.7542,-0.759,-0.7645,-0.766,-0.7738,-0.7726,-0.7761,-0.7795,-0.7797,-0.7808,-0.7823,-0.7811,-0.7796,-0.7798,-0.7816,-0.7815,-0.7815,0,-0.693,-0.7033,-0.7089,-0.7124,-0.723,-0.7255,-0.7301,-0.7375,-0.7415,-0.748,-0.7507,-0.7577,-0.7616,-0.7669,-0.7734,-0.7739,-0.7806,-0.7827,-0.7838,-0.7836,-0.785,-0.7848,-0.7841,-0.787,-0.787,-0.787,-0.787,0,-0.693,-0.6971,-0.7071,-0.7106,-0.7155,-0.7227,-0.7273,-0.7324,-0.7389,-0.7436,-0.7494,-0.7536,-0.762,-0.7673,-0.7724,-0.7782,-0.7799,-0.7829,-0.7843,-0.7825,-0.7821,-0.7849,-0.7851,-0.787,-0.787,-0.787,-0.787,0,-0.689,-0.6958,-0.7024,-0.7119,-0.7144,-0.7176,-0.7259,-0.7295,-0.7349,-0.7407,-0.7425,-0.7509,-0.7575,-0.7645,-0.7734,-0.7769,-0.7824,-0.7842,-0.7799,-0.7807,-0.7815,-0.7813,-0.7826,-0.7832,-0.7855,-0.7855,-0.7854,0,-0.6885,-0.6919,-0.7018,-0.7053,-0.7097,-0.7153,-0.7195,-0.7267,-0.7309,-0.7395,-0.7422,-0.7491,-0.7551,-0.7653,-0.7722,-0.7791,-0.7812,-0.7812,-0.7823,-0.7804,-0.7814,-0.7812,-0.7816,-0.7809,-0.7808,-0.7808,-0.7807,0,-0.6871,-0.6903,-0.6961,-0.7032,-0.708,-0.7139,-0.72,-0.7226,-0.731,-0.7354,-0.7422,-0.7468,-0.7559,-0.7628,-0.7705,-0.7753,-0.7795,-0.7803,-0.781,-0.7792,-0.7766,-0.7782,-0.7791,-0.7803,-0.7803,-0.7804,-0.7804,-0.7804,-0.685,-0.6883,-0.6958,-0.7021,-0.7075,-0.7131,-0.717,-0.7229,-0.7286,-0.7366,-0.7405,-0.7473,-0.7546,-0.7654,-0.7701,-0.7755,-0.7768,-0.7777,-0.778,-0.7781,-0.7777,-0.7756,-0.777,-0.777,-0.777,-0.777,-0.777,0,-0.6839,-0.6891,-0.6948,-0.7032,-0.7082,-0.7116,-0.7186,-0.7226,-0.7284,-0.7349,-0.7407,-0.7485,-0.7552,-0.7627,-0.7699,-0.7728,-0.7749,-0.7745,-0.7744,-0.7755,-0.7761,-0.7749,-0.7727,-0.7727,-0.7727,-0.7727,-0.7727,-0.7727,-0.684,-0.6899,-0.694,-0.7026,-0.7077,-0.7144,-0.7181,-0.7233,-0.7286,-0.737,-0.7426,-0.7474,-0.7544,-0.7621,-0.7685,-0.7705,-0.7729,-0.772,-0.7745,-0.775,-0.7754,-0.7757,-0.7746,-0.7724,-0.7724,-0.7735,-0.7735,-0.7735]},{"header":{"parameterUnit":"m.s-1","parameterCategory":1,"la1":30.2991,"la2":30.254,"lo1":-89.0895,"lo2":-89.0444,"dy":0.0017,"dx":0.0017,"nx":28,"ny":28,"refTime":"2025-08-28T03:00:00:Z","depth":0,"parameterNumber":3,"parameterNumberName":"V-component_of_WINDS"},"data":[0,0,0,0,0,0,0,0,0,0,0,0,0,0,0,0,0,0,0,0,0,0,0,0,0,0,0,0,0,0,0,0,0,0,0,0,0,0,0,0,0,0,0,0,0,0,0,0,0,0,0,0,0,0,0,0,0,0,2.1007,2.1005,0,2.0811,2.0809,2.0807,2.0658,2.0657,2.0656,2.0654,2.0444,2.044,2.0435,0,0,0,0,0,0,0,0,0,0,0,0,0,2.1242,2.1239,2.1007,2.1005,2.1002,2.0812,2.0809,2.0806,2.0659,2.0657,2.0655,2.0654,2.0445,2.044,2.0435,0,0,0,0,0,0,0,0,0,0,0,0,0,2.1103,2.1238,2.1008,2.0906,2.0895,2.0812,2.0809,2.0806,2.0659,2.0657,2.0655,2.0653,2.0447,2.0441,2.0434,2.0434,0,0,2.0414,2.0411,0,0,0,0,0,0,0,0,2.1111,2.1094,2.0923,2.0913,2.09,2.0757,2.0815,2.0681,2.0659,2.0748,2.0654,2.0652,2.0549,2.0534,2.0501,2.0424,2.0415,2.0414,2.041,2.0407,2.0405,0,0,0,0,0,0,0,2.1121,2.1102,2.0929,2.0921,2.0907,2.0866,2.0844,2.0789,2.0662,2.074,2.0729,2.0708,2.0542,2.0508,2.0495,2.0412,2.0414,2.0408,2.0404,2.0401,2.0321,2.0323,0,0,0,0,0,0,2.1148,2.1111,2.0936,2.0924,2.1003,2.0864,2.0839,2.0805,2.0662,2.0639,2.071,2.0702,2.052,2.0503,2.0487,2.0475,2.0407,2.0401,2.0397,2.0319,2.0321,2.0323,0,0,0,0,0,0,2.1153,2.1134,2.0943,2.1014,2.0987,2.0862,2.0825,2.0802,2.0768,2.064,2.0615,2.0699,2.0518,2.0497,2.0448,2.0466,2.0398,2.0392,2.0317,2.032,2.0322,2.0454,0,0,0,0,0,0,2.1161,2.1136,2.1138,2.1015,2.0984,2.0912,2.0826,2.08,2.0758,2.0746,2.0623,2.0601,2.0515,2.0459,2.0442,2.0456,2.0387,2.0315,2.0318,2.0322,2.0447,2.046,2.0472,0,0,0,0,0,2.117,2.1181,2.1139,2.1118,2.0983,2.0913,2.0894,2.0798,2.0761,2.0759,2.0676,2.0604,2.0468,2.0455,2.0435,2.0447,2.0313,2.0317,2.0321,2.0441,2.0458,2.0472,0,0,0,0,0,0,2.1305,2.1163,2.1114,2.1087,2.1014,2.0888,2.0883,2.0819,2.0752,2.0743,2.0623,2.0597,2.0561,2.0499,2.0488,2.0438,2.0381,2.0381,2.0479,2.0494,2.0506,2.052,2.0381,0,0,0,0,0,2.1333,2.1291,2.1167,2.1155,2.1121,2.1009,2.0975,2.0907,2.0825,2.0792,2.0706,2.0626,2.0564,2.0526,2.0462,2.0438,2.0407,2.0436,2.0449,2.0459,2.046,2.0439,2.045,2.0337,2.0336,2.0336,0,0,2.1388,2.1305,2.1285,2.118,2.1115,2.1071,2.0984,2.0941,2.0905,2.0784,2.0734,2.0668,2.057,2.0534,2.0513,2.0481,2.0485,2.0464,2.0474,2.0468,2.0445,2.0455,2.0465,2.0339,2.0339,2.0338,0,0,2.1465,2.14,2.1381,2.1318,2.1222,2.1147,2.1143,2.1027,2.0979,2.0928,2.0835,2.079,2.0687,2.062,2.0573,2.0625,2.0555,2.0607,2.0671,2.0652,2.0661,2.0668,2.0684,2.0691,2.0609,2.0609,2.0609,0,2.1544,2.1477,2.1378,2.1341,2.1296,2.1188,2.1166,2.1109,2.0996,2.0965,2.0932,2.08,2.0727,2.0672,2.0685,2.0651,2.0639,2.062,2.0669,2.0675,2.068,2.0693,2.07,2.0616,2.0615,2.0614,2.0614,0,2.1577,2.1532,2.1528,2.1425,2.1379,2.135,2.1244,2.1209,2.1146,2.1074,2.102,2.0929,2.0844,2.0826,2.0763,2.0761,2.0744,2.0692,2.0632,2.0699,2.071,2.0714,2.0626,2.0623,2.0621,2.0619,0,0,2.1733,2.1577,2.1576,2.1527,2.1413,2.1374,2.1338,2.1259,2.123,2.1155,2.1119,2.1035,2.0986,2.0932,2.086,2.0844,2.0887,2.0793,2.0788,2.0811,2.0876,2.0915,2.0923,2.0842,2.0842,2.0843,2.0884,0,2.179,2.1724,2.1634,2.1596,2.155,2.1447,2.1415,2.1339,2.1271,2.122,2.1142,2.1084,2.1024,2.0991,2.0971,2.0887,2.0898,2.0883,2.0803,2.0802,2.0829,2.0929,2.0969,2.1013,2.0887,2.0888,2.0888,0,2.1847,2.1781,2.174,2.1628,2.1606,2.158,2.1498,2.1452,2.1363,2.1313,2.1255,2.1177,2.113,2.1079,2.101,2.1001,2.0963,2.0917,2.0916,2.0903,2.0848,2.0915,2.1024,2.103,2.0894,2.0894,2.0893,0,2.1962,2.1862,2.1824,2.1786,2.1655,2.1638,2.1582,2.1492,2.1449,2.1376,2.1347,2.1269,2.1226,2.1166,2.1068,2.104,2.1008,2.0949,2.0963,2.0965,2.0959,2.096,2.1061,2.0939,2.0939,2.0939,2.0939,0,2.2033,2.2011,2.1874,2.185,2.1821,2.1717,2.1689,2.1623,2.1544,2.1502,2.1407,2.137,2.1244,2.1191,2.1114,2.1067,2.1048,2.1004,2.0984,2.1011,2.1017,2.0983,2.0976,2.0941,2.094,2.094,2.094,0,2.2156,2.2063,2.2014,2.1895,2.1865,2.1848,2.1744,2.1715,2.1642,2.159,2.1572,2.1455,2.1387,2.1285,2.1185,2.1133,2.1098,2.1065,2.1129,2.1116,2.1134,2.1133,2.1214,2.1218,2.1099,2.11,2.1101,0,2.2206,2.2187,2.2067,2.2034,2.1983,2.1931,2.1887,2.1783,2.174,2.1637,2.162,2.1545,2.148,2.1376,2.1279,2.1202,2.1165,2.1199,2.1152,2.1181,2.1162,2.1164,2.1159,2.1209,2.1211,2.1213,2.1214,0,2.2305,2.226,2.2203,2.2129,2.2081,2.2017,2.1948,2.1925,2.1805,2.1762,2.1693,2.1643,2.1542,2.1468,2.1378,2.1315,2.1243,2.123,2.1228,2.1255,2.1292,2.1269,2.1156,2.1228,2.1226,2.1225,2.1225,2.1224,2.239,2.2368,2.228,2.2218,2.2156,2.2094,2.2061,2.1984,2.1926,2.1838,2.1779,2.1713,2.1621,2.1493,2.1435,2.1379,2.1348,2.1347,2.1345,2.1346,2.1355,2.1304,2.1362,2.1361,2.1361,2.136,2.136,0,2.2481,2.242,2.2365,2.2273,2.2224,2.2165,2.2085,2.2047,2.1991,2.1914,2.1852,2.1772,2.1699,2.1598,2.1517,2.1491,2.1456,2.1473,2.1472,2.1458,2.1388,2.1397,2.1503,2.1503,2.1503,2.1503,2.1503,2.1503,2.2523,2.2481,2.2426,2.2351,2.2288,2.2226,2.2185,2.2125,2.2063,2.1979,2.1919,2.1855,2.1767,2.1678,2.1608,2.1579,2.1552,2.158,2.1541,2.1477,2.1464,2.1451,2.1458,2.1576,2.1576,2.1615,2.1615,2.1616]}]]